Accueil
METAR-TAF:

METAR-TAF

Aéroports :

Aéroport de Morlaix Ploujean

Morlaix, France

latitude: 48-36N, longitude: 3-49W, altitude: 84 m

Observation

Le bulletin a été fait il y a 38 minutes, à 15:00 UTC
Vent 12 kt de sud-ouest, variant entre sud et ouest/sud-ouest
Température 15°C
Humidité 82%
Pression 1020 hPa
Visibilité 10 km ou plus
Nuages fragmentés à une hauteur de 1600 ft
Ciel couvert à une hauteur de 2200 ft

METAR: LFRU 301500Z AUTO 22012KT 190V250 9999 BKN016 OVC022 15/12 Q1020

Heure: 16:38 (15:38 UTC)


TAF: absent

Observations et prévisions météorologiques de plus de 4000 aéroports (messages METAR et TAF).

Les stations disponibles sont représentées par des disques jaunes et rouges sur la carte.

Passer la souris dessus pour voir le nom de la station.

Cliquer dessus pour voir les observations et prévisions météorologiques.

Pour changer de carte: cliquez sur les boutons verts avec une croix noire pour zoomer, sur le bouton vert avec un tiret pour effectuer un zoom arrière, ou sur les flèches vertes pour les cartes adjacentes.


METAR-TAF: